Location: Dogstar Observatory
(35.3981°N, 83.1078°W)
Time: 21:16:09
(UTC-05:00)

Envisat - Visible Passes

Search period start: 05 December 2021 00:00
Search period end: 15 December 2021 00:00
Orbit: 764 x 766 km, 98.2° (Epoch: 05 December)

Date Brightness Start Highest point End Pass type
(mag) Time Alt. Az. Time Alt. Az. Time Alt. Az.
05 Dec 4.2 05:00:31 10° NNE 05:05:19 42° E 05:10:05 10° S visible
05 Dec 4.2 06:40:24 10° NNW 06:43:58 20° WNW 06:47:33 10° WSW visible
05 Dec 5.8 17:52:10 10° SW 17:55:46 20° W 17:59:24 10° NW visible
06 Dec 5.6 04:24:51 10° NE 04:28:14 18° E 04:31:36 10° SE visible
06 Dec 3.2 06:02:36 10° N 06:07:25 44° WNW 06:12:12 10° SW visible
07 Dec 3.0 05:25:34 10° NNE 05:30:39 78° ESE 05:35:43 10° S visible
07 Dec 6.5 18:21:13 10° W 18:21:19 10° W 18:21:26 10° W visible
08 Dec 4.6 04:49:10 10° NE 04:53:43 32° E 04:58:12 10° SSE visible
08 Dec 3.9 06:28:26 10° NNW 06:32:32 25° WNW 06:36:36 10° WSW visible
08 Dec 5.6 17:40:00 10° SSW 17:44:08 25° W 17:48:18 10° NW visible
09 Dec 5.9 04:14:08 10° ENE 04:16:35 13° E 04:19:01 10° ESE visible
09 Dec 3.0 05:50:56 10° N 05:55:54 58° WNW 06:00:52 10° SSW visible
10 Dec 3.5 05:14:04 10° NNE 05:19:06 59° E 05:24:05 10° S visible
10 Dec 4.5 06:54:55 10° NNW 06:57:33 14° WNW 07:00:11 10° W visible
10 Dec 6.1 18:07:09 10° WSW 18:09:39 14° W 18:12:10 10° WNW visible
11 Dec 5.1 04:37:57 10° NE 04:42:05 25° E 04:46:12 10° SSE visible
11 Dec 3.6 06:16:36 10° N 06:21:04 32° WNW 06:25:31 10° SW visible
12 Dec 2.8 05:39:19 10° N 05:44:23 75° WNW 05:49:26 10° SSW visible
13 Dec 4.0 05:02:38 10° NNE 05:07:30 45° E 05:12:20 10° S visible
13 Dec 4.3 06:42:43 10° NNW 06:46:08 18° WNW 06:49:32 10° WSW visible
13 Dec 5.9 17:54:35 10° SW 17:57:59 18° W 18:01:24 10° NW visible
14 Dec 5.4 04:26:52 10° NE 04:30:27 19° E 04:34:01 10° SE visible
14 Dec 3.3 06:04:50 10° N 06:09:35 41° WNW 06:14:18 10° SW visible
